YM2KA-13 Weather Reports


time (UTC)temp
F
wind
direction
speed
knots
gust
knots
rain 1hr
in
rain 24hr
in
rain mn
in
humidity
%
barometer
mb
20260906105321 83 212 2.6 5.2 0.00 0.00 0.00 26 1011.1
20260906105129 82 175 0.9 2.6 0.00 0.00 0.00 27 1011.1
20260906104131 81 305 1.7 2.6 0.00 0.00 0.00 27 1011.2
20260906103818 82 291 4.3 6.1 0.00 0.00 0.00 28 1011.1
20260906103131 82 283 1.7 2.6 0.00 0.00 0.00 27 1011.2
20260906102325 81 330 0.9 0.9 0.00 0.00 0.00 28 1011.2
20260906102122 81 251 1.7 4.3 0.00 0.00 0.00 28 1011.2
20260906101124 80 199 0.9 0.0 0.00 0.00 0.00 27 1011.3
20260906100821 80 219 2.6 5.2 0.00 0.00 0.00 27 1011.3
20260906100124 80 281 4.3 5.2 0.00 0.00 0.00 26 1011.4
20260906095317 80 321 4.3 5.2 0.00 0.00 0.00 27 1011.4
20260906095125 81 300 4.3 6.1 0.00 0.00 0.00 28 1011.5
20260906094127 80 238 0.0 0.9 0.00 0.00 0.00 28 1011.4
20260906093824 79 294 1.7 4.3 0.00 0.00 0.00 29 1011.4
20260906093128 80 284 1.7 5.2 0.00 0.00 0.00 30 1011.5
20260906092321 80 286 0.9 2.6 0.00 0.00 0.00 30 1011.5
20260906092129 80 227 0.9 1.7 0.00 0.00 0.00 30 1011.6
20260906091130 79 306 2.6 4.3 0.00 0.00 0.00 32 1011.5
20260906090827 79 285 5.2 7.0 0.00 0.00 0.00 31 1011.5
20260906090130 79 257 0.9 4.3 0.00 0.00 0.00 32 1011.5
20260906085323 78 331 2.6 2.6 0.00 0.00 0.00 32 1011.7
20260906085131 78 310 1.7 5.2 0.00 0.00 0.00 32 1011.7
20260906084123 77 233 0.9 1.7 0.00 0.00 0.00 34 1011.6
20260906083820 77 260 5.2 7.0 0.00 0.00 0.00 35 1011.6
20260906083123 77 274 2.6 1.7 0.00 0.00 0.00 35 1011.7
20260906082326 76 313 2.6 4.3 0.00 0.00 0.00 35 1011.8
20260906082124 76 319 1.7 5.2 0.00 0.00 0.00 34 1011.8
20260906081126 76 247 2.6 6.1 0.00 0.00 0.00 36 1011.9
20260906080823 76 301 1.7 5.2 0.00 0.00 0.00 37 1011.9
20260906080126 75 305 4.3 7.0 0.00 0.00 0.00 39 1011.9
20260906075319 75 291 1.7 5.2 0.00 0.00 0.00 38 1012.0
20260906075127 75 284 4.3 5.2 0.00 0.00 0.00 39 1012.0
20260906074129 75 314 2.6 2.6 0.00 0.00 0.00 39 1012.0
20260906073826 75 292 2.6 6.1 0.00 0.00 0.00 39 1012.1
20260906073130 74 283 1.7 2.6 0.00 0.00 0.00 40 1012.1
20260906072323 74 319 2.6 4.3 0.00 0.00 0.00 41 1012.0
20260906072131 74 289 2.6 2.6 0.00 0.00 0.00 40 1012.1
20260906071122 74 281 1.7 4.3 0.00 0.00 0.00 41 1012.0
20260906070819 74 271 1.7 2.6 0.00 0.00 0.00 40 1012.0
20260906070123 74 308 1.7 2.6 0.00 0.00 0.00 40 1012.0
20260906065326 74 36 0.0 0.9 0.00 0.00 0.00 39 1012.0
20260906065124 73 327 0.0 0.9 0.00 0.00 0.00 39 1012.0
20260906064126 73 309 0.9 1.7 0.00 0.00 0.00 40 1012.0
20260906063823 73 293 0.0 0.9 0.00 0.00 0.00 39 1012.0
20260906063126 72 306 0.0 0.0 0.00 0.00 0.00 40 1012.0
20260906062319 72 339 1.7 2.6 0.00 0.00 0.00 39 1012.0
20260906062127 72 308 1.7 1.7 0.00 0.00 0.00 39 1012.0
20260906061129 73 76 0.0 0.0 0.00 0.00 0.00 39 1011.9
20260906060826 73 106 0.0 0.9 0.00 0.00 0.00 39 1011.9
20260906060129 72 77 0.0 0.0 0.00 0.00 0.00 40 1011.9
20260906055323 71 341 0.0 0.0 0.00 0.00 0.00 42 1012.0
20260906055130 71 341 0.0 0.0 0.00 0.00 0.00 42 1012.0
20260906054122 70 305 0.0 0.0 0.00 0.00 0.00 43 1012.0
20260906053819 70 305 0.0 0.0 0.00 0.00 0.00 43 1012.1
20260906053122 69 305 0.0 0.0 0.00 0.00 0.00 44 1012.2
20260906052326 70 203 0.0 0.0 0.00 0.00 0.00 39 1012.2
20260906052124 69 190 0.0 0.0 0.00 0.00 0.00 39 1012.2
20260906051125 68 198 0.0 1.7 0.00 0.00 0.00 40 1012.1
20260906050822 68 220 0.9 2.6 0.00 0.00 0.00 41 1012.1
20260906050126 68 199 0.9 2.6 0.00 0.00 0.00 41 1012.1
20260906045319 68 172 0.9 1.7 0.00 0.00 0.00 42 1012.0
20260906045127 68 165 0.0 0.0 0.00 0.00 0.00 42 1012.0
20260906044129 66 204 0.0 1.7 0.00 0.00 0.00 43 1011.9
20260906043827 66 206 0.0 0.9 0.00 0.00 0.00 44 1011.9
20260906043129 66 155 0.9 2.6 0.00 0.00 0.00 45 1011.8
20260906042322 65 172 0.0 1.7 0.00 0.00 0.00 46 1011.8
20260906042130 65 170 0.0 1.7 0.00 0.00 0.00 46 1011.8
20260906041122 64 182 0.0 0.9 0.00 0.00 0.00 47 1011.8
20260906040819 64 161 0.9 1.7 0.00 0.00 0.00 47 1011.8
20260906040122 64 188 0.9 0.9 0.00 0.00 0.00 48 1011.7
20260906035326 64 161 0.0 0.9 0.00 0.00 0.00 48 1011.7
20260906035123 64 168 0.9 0.9 0.00 0.00 0.00 48 1011.7
20260906034125 64 164 0.0 0.0 0.00 0.00 0.00 48 1011.6
20260906033822 64 164 0.0 0.0 0.00 0.00 0.00 48 1011.5
20260906033125 63 164 0.0 0.0 0.00 0.00 0.00 49 1011.6
20260906032319 63 164 0.0 0.0 0.00 0.00 0.00 51 1011.5
20260906032127 63 164 0.0 0.0 0.00 0.00 0.00 51 1011.5
20260906031128 64 164 0.0 0.0 0.00 0.00 0.00 49 1011.5
20260906030825 64 164 0.0 0.0 0.00 0.00 0.00 49 1011.5
20260906030129 64 164 0.0 0.0 0.00 0.00 0.00 49 1011.3
20260906025322 64 164 0.0 0.0 0.00 0.00 0.00 48 1011.3
20260906025130 64 164 0.0 0.0 0.00 0.00 0.00 48 1011.2
20260906024131 64 182 0.0 0.0 0.00 0.00 0.00 48 1011.2
20260906023818 64 182 0.0 0.0 0.00 0.00 0.00 48 1011.3
20260906023131 65 182 0.0 0.0 0.00 0.00 0.00 48 1011.2
20260906022324 65 266 0.0 0.0 0.00 0.00 0.00 47 1011.2
20260906022122 65 266 0.0 0.0 0.00 0.00 0.00 47 1011.2
20260906021123 65 266 0.0 0.0 0.00 0.00 0.00 47 1011.2
20260906020820 65 266 0.0 0.0 0.00 0.00 0.00 46 1011.2
20260906020123 66 266 0.0 0.0 0.00 0.00 0.00 46 1011.2
20260906015327 66 266 0.0 0.0 0.00 0.00 0.00 46 1011.2
20260906015124 66 266 0.0 0.0 0.00 0.00 0.00 46 1011.2
20260906014126 65 266 0.0 0.0 0.00 0.00 0.00 46 1011.1
20260906013823 65 266 0.0 0.0 0.00 0.00 0.00 46 1011.2
20260906013126 65 266 0.0 0.9 0.00 0.00 0.00 46 1011.2
20260906012320 65 266 0.0 0.9 0.00 0.00 0.00 46 1011.3
20260906012128 65 277 0.0 0.0 0.00 0.00 0.00 46 1011.2
20260906011129 65 21 0.0 0.0 0.00 0.00 0.00 46 1011.2
20260906010826 65 21 0.0 0.0 0.00 0.00 0.00 46 1011.2
20260906010130 65 21 0.0 0.0 0.00 0.00 0.00 46 1011.1
20260906005323 65 21 0.0 0.0 0.00 0.00 0.00 45 1011.1
20260906005131 66 21 0.0 0.0 0.00 0.00 0.00 44 1011.1
20260906004123 66 21 0.0 0.0 0.00 0.00 0.00 44 1011.2
20260906003820 66 21 0.0 0.0 0.00 0.00 0.00 44 1011.3
20260906003123 66 21 0.0 0.0 0.00 0.00 0.00 44 1011.3
20260906002326 66 21 0.0 0.0 0.00 0.00 0.00 43 1011.4
20260906002124 66 21 0.0 0.0 0.00 0.00 0.00 43 1011.4
20260906001126 67 21 0.0 0.9 0.00 0.00 0.00 43 1011.3
20260906000823 67 344 0.0 0.9 0.00 0.00 0.00 42 1011.4
20260906000126 67 346 0.0 0.9 0.00 0.00 0.00 42 1011.4
20260905235320 67 36 0.0 0.0 0.00 0.00 0.00 42 1011.4
20260905235127 67 2 0.0 1.7 0.00 0.00 0.00 42 1011.5
20260905234128 67 353 0.0 0.0 0.00 0.00 0.00 42 1011.4
20260905233825 67 353 0.0 0.0 0.00 0.00 0.00 42 1011.5
20260905233129 67 353 0.0 0.0 0.00 0.00 0.00 41 1011.4
20260905232321 68 353 0.0 0.0 0.00 0.00 0.00 41 1011.4
20260905232129 68 353 0.0 0.0 0.00 0.00 0.00 41 1011.4
20260905231130 68 353 0.0 0.0 0.00 0.00 0.00 41 1011.5
20260905230817 68 353 0.0 0.0 0.00 0.00 0.00 41 1011.5
20260905230131 68 353 0.0 0.0 0.00 0.00 0.00 40 1011.6
20260905225324 69 354 0.0 0.0 0.00 0.00 0.00 40 1011.6
20260905225122 69 349 0.0 0.0 0.00 0.00 0.00 39 1011.6
20260905224124 69 1 0.0 0.0 0.00 0.00 0.00 39 1011.6
20260905223821 69 353 0.0 0.0 0.00 0.00 0.00 38 1011.6
20260905223124 69 8 0.0 0.9 0.00 0.00 0.00 38 1011.7
20260905222317 70 4 0.9 0.9 0.00 0.00 0.00 38 1011.7
20260905222125 70 54 0.9 2.6 0.00 0.00 0.00 38 1011.7
20260905221127 70 41 0.0 0.0 0.00 0.00 0.00 38 1011.7
20260905220824 70 27 0.9 0.9 0.00 0.00 0.00 38 1011.8
20260905220127 70 52 0.0 0.9 0.00 0.00 0.00 37 1011.8
20260905215321 70 22 0.0 0.0 0.00 0.00 0.00 36 1011.7
20260905215128 70 56 1.7 2.6 0.00 0.00 0.00 36 1011.8
20260905214130 70 19 0.0 1.7 0.00 0.00 0.00 35 1011.8
20260905213817 70 1 0.9 1.7 0.00 0.00 0.00 35 1011.8
20260905213130 70 14 0.0 0.0 0.00 0.00 0.00 35 1011.7
20260905212323 71 356 0.0 0.0 0.00 0.00 0.00 35 1011.7
20260905212121 71 356 0.0 0.0 0.00 0.00 0.00 35 1011.7
20260905211122 71 99 0.0 0.0 0.00 0.00 0.00 34 1011.7
20260905210819 71 246 0.0 1.7 0.00 0.00 0.00 34 1011.7
20260905210123 71 160 0.0 0.0 0.00 0.00 0.00 33 1011.7
20260905205326 72 105 1.7 4.3 0.00 0.00 0.00 33 1011.6
20260905205124 72 84 1.7 4.3 0.00 0.00 0.00 33 1011.7
20260905204126 72 133 1.7 2.6 0.00 0.00 0.00 33 1011.7
20260905203823 72 106 1.7 2.6 0.00 0.00 0.00 33 1011.7
20260905203126 72 90 0.0 0.9 0.00 0.00 0.00 33 1011.8
20260905202319 72 44 1.7 2.6 0.00 0.00 0.00 32 1012.0
20260905202127 73 39 0.0 2.6 0.00 0.00 0.00 33 1012.0
20260905201129 73 98 0.0 0.0 0.00 0.00 0.00 32 1011.9
20260905200826 73 98 0.0 0.0 0.00 0.00 0.00 32 1011.9
20260905200129 74 29 0.9 1.7 0.00 0.00 0.00 31 1011.9
20260905195323 74 3 0.0 0.0 0.00 0.00 0.00 31 1011.9
20260905195131 74 4 0.0 0.0 0.00 0.00 0.00 31 1011.9
20260905194122 74 327 0.0 0.0 0.00 0.00 0.00 31 1011.9
20260905193819 74 321 0.0 1.7 0.00 0.00 0.00 32 1011.8
20260905193123 74 319 0.0 0.9 0.00 0.00 0.00 31 1011.8
20260905192326 74 10 0.0 0.0 0.00 0.00 0.00 30 1011.6
20260905192124 75 6 0.9 1.7 0.00 0.00 0.00 30 1011.6
20260905191125 75 88 1.7 2.6 0.00 0.00 0.00 30 1011.6
20260905190822 75 104 0.0 0.9 0.00 0.00 0.00 30 1011.5
20260905190126 75 115 0.0 0.0 0.00 0.00 0.00 30 1011.5
20260905185319 75 106 0.0 0.9 0.00 0.00 0.00 30 1011.4
20260905185127 75 122 0.9 0.9 0.00 0.00 0.00 30 1011.4
20260905184129 75 204 0.0 2.6 0.00 0.00 0.00 30 1011.4
20260905183826 75 202 0.0 0.0 0.00 0.00 0.00 30 1011.4
20260905183129 75 237 0.0 0.0 0.00 0.00 0.00 31 1011.4
20260905182322 75 191 0.9 1.7 0.00 0.00 0.00 31 1011.4
20260905182130 75 113 0.9 2.6 0.00 0.00 0.00 31 1011.4
20260905181122 75 117 0.0 2.6 0.00 0.00 0.00 31 1011.5
20260905180819 75 116 0.9 2.6 0.00 0.00 0.00 31 1011.5
20260905180122 75 122 0.9 2.6 0.00 0.00 0.00 31 1011.4
20260905175326 75 92 0.9 2.6 0.00 0.00 0.00 31 1011.4
20260905175123 75 131 0.9 4.3 0.00 0.00 0.00 31 1011.4
20260905174125 76 221 0.0 0.0 0.00 0.00 0.00 30 1011.2
20260905173822 76 117 0.0 1.7 0.00 0.00 0.00 30 1011.2
20260905173126 76 156 1.7 1.7 0.00 0.00 0.00 30 1011.2
20260905172319 76 120 0.9 1.7 0.00 0.00 0.00 30 1011.1
20260905172127 76 208 1.7 2.6 0.00 0.00 0.00 30 1011.2
20260905171128 77 153 0.0 1.7 0.00 0.00 0.00 30 1011.1
20260905170825 77 139 0.9 2.6 0.00 0.00 0.00 30 1011.1
20260905170129 77 200 0.0 0.9 0.00 0.00 0.00 29 1011.1
20260905165322 77 110 1.7 1.7 0.00 0.00 0.00 29 1011.0
20260905165130 77 161 1.7 2.6 0.00 0.00 0.00 29 1011.0
20260905164122 78 212 0.0 0.9 0.00 0.00 0.00 29 1010.8
20260905163819 78 96 1.7 4.3 0.00 0.00 0.00 29 1010.8
20260905163122 78 121 0.9 2.6 0.00 0.00 0.00 29 1010.7
20260905162325 79 115 6.1 10.4 0.00 0.00 0.00 28 1010.7
20260905162123 79 105 5.2 11.3 0.00 0.00 0.00 29 1010.7
20260905161125 79 120 2.6 2.6 0.00 0.00 0.00 28 1010.6
20260905160822 80 92 4.3 7.0 0.00 0.00 0.00 28 1010.6
20260905160125 80 137 1.7 2.6 0.00 0.00 0.00 28 1010.5
20260905155319 81 15 2.6 4.3 0.00 0.00 0.00 29 1010.5
20260905155127 81 11 2.6 4.3 0.00 0.00 0.00 29 1010.5
20260905154128 82 32 0.9 1.7 0.00 0.00 0.00 27 1010.5
20260905153825 82 49 1.7 2.6 0.00 0.00 0.00 26 1010.5
20260905153128 82 358 1.7 2.6 0.00 0.00 0.00 26 1010.5
20260905152321 82 357 0.9 0.9 0.00 0.00 0.00 26 1010.5
20260905152129 82 35 1.7 2.6 0.00 0.00 0.00 26 1010.5
20260905151129 82 5 0.9 2.6 0.00 0.00 0.00 26 1010.6
20260905150816 82 358 2.6 4.3 0.00 0.00 0.00 26 1010.6
20260905150130 83 335 4.3 5.2 0.00 0.00 0.00 25 1010.5
20260905145323 83 315 0.9 2.6 0.00 0.00 0.00 25 1010.5
20260905145121 83 331 2.6 5.2 0.00 0.00 0.00 25 1010.5
20260905144123 83 52 1.7 2.6 0.00 0.00 0.00 24 1010.6
20260905143820 83 339 0.9 1.7 0.00 0.00 0.00 24 1010.6
20260905143123 83 282 0.0 0.0 0.00 0.00 0.00 24 1010.6
20260905142316 84 16 4.3 5.2 0.00 0.00 0.00 24 1010.5
20260905142124 83 263 0.0 2.6 0.00 0.00 0.00 24 1010.5
20260905141126 83 335 4.3 5.2 0.00 0.00 0.00 25 1010.5
20260905140823 83 295 4.3 4.3 0.00 0.00 0.00 23 1010.5
20260905140126 83 339 4.3 6.1 0.00 0.00 0.00 24 1010.5
20260905135320 84 260 0.9 1.7 0.00 0.00 0.00 24 1010.6
20260905135128 83 218 0.0 0.0 0.00 0.00 0.00 24 1010.6
20260905134129 83 347 2.6 2.6 0.00 0.00 0.00 24 1010.6
20260905133816 83 33 1.7 4.3 0.00 0.00 0.00 25 1010.6
20260905133130 83 337 1.7 2.6 0.00 0.00 0.00 26 1010.6
20260905132323 84 319 0.9 2.6 0.00 0.00 0.00 26 1010.7
20260905132121 83 307 0.9 2.6 0.00 0.00 0.00 25 1010.6
20260905131122 83 315 1.7 2.6 0.00 0.00 0.00 26 1010.8
20260905130819 82 0 0.0 0.0 0.00 0.00 0.00 26 1010.9
20260905130123 83 308 4.3 5.2 0.00 0.00 0.00 26 1010.9
20260905125325 83 359 0.0 0.0 0.00 0.00 0.00 27 1011.0
20260905125123 82 48 0.0 0.9 0.00 0.00 0.00 27 1011.0
20260905124125 82 330 4.3 7.0 0.00 0.00 0.00 26 1011.2
20260905123822 82 302 2.6 5.2 0.00 0.00 0.00 27 1011.1
20260905123125 82 308 2.6 5.2 0.00 0.00 0.00 27 1011.2
20260905122318 82 304 1.7 5.2 0.00 0.00 0.00 27 1011.3
20260905122126 82 324 2.6 5.2 0.00 0.00 0.00 27 1011.3
20260905121128 82 331 0.9 2.6 0.00 0.00 0.00 29 1011.3
20260905120824 82 323 2.6 8.7 0.00 0.00 0.00 29 1011.3
20260905120127 81 207 0.9 0.9 0.00 0.00 0.00 29 1011.3
20260905115321 81 331 2.6 5.2 0.00 0.00 0.00 30 1011.5
20260905115129 81 7 2.6 4.3 0.00 0.00 0.00 30 1011.6
20260905114120 82 336 6.1 12.2 0.00 0.00 0.00 28 1011.5
20260905113817 82 332 6.1 8.7 0.00 0.00 0.00 29 1011.6
20260905113121 83 52 2.6 7.0 0.00 0.00 0.00 29 1011.6
20260905112324 82 282 1.7 4.3 0.00 0.00 0.00 30 1011.7
20260905112122 82 287 4.3 6.1 0.00 0.00 0.00 30 1011.8
20260905111123 81 264 1.7 5.2 0.00 0.00 0.00 30 1011.9
20260905110820 81 274 0.0 0.9 0.00 0.00 0.00 31 1011.9
20260905110124 82 300 4.3 7.0 0.00 0.00 0.00 30 1012.0